map of HND home
Great Circle Mapper logo
HND - Airport
Location
City:  Tokyo, Honshu, Japan
Name:Haneda
ICAO / IATA:RJTT / HND

Details
Type:Airport (Aerodrome, Airfield)
Use:Public/Civil, International (customs port of entry)
Latitude:35°33'12"N (35.553333)
Longitude:139°46'52"E (139.781111)
Elevation:21 ft (6 m)
Runways:4
Longest:9843 × 197 ft (3000 × 60 m), paved

Time
Time Zone:UTC+9
Local Time:

Weather
METAR:RJTT 311400Z 32003KT 300V360 6000 SCT060 BKN110 19/15 Q1021 NOSIG
TAF:RJTT 311108Z 3112/0118 02004KT 8000 FEW020 SCT050
TEMPO 3116/3122 4000 BR
BECMG 0100/0103 14006KT
BECMG 0109/0112 36006KT
TEMPO 0109/0118 4000 SHRA BR FEW006 BKN008

Related Locations
Nearby:
Farthest:SNPV: 11755 mi / 18917 km
Mostardas [Solidão], RS, BR

Find:

   beyond  
but within

Other Information
Maps:
NOTAMs:
Links:
Sources:

  
flag of Japan
flag of Tokyo
  

Airport Diagram

Airport diagram for HND

Airport diagram (OBSOLETE) from NGA

Sectional Chart

Flight Planning
at skyvector.com

Satellite Image

Google Maps Satellite View

 

Copyright © 2004-2014 Karl L. Swartz. All rights reserved.
The Great Circle Mapper name and logo are trademarks of the Great Circle Mapper.
All other trademarks mentioned herein belong to their respective owners.
Please see credits for attibutions and further copyright information.

  Follow gcmap on Facebook Follow gcmap on Twitter

hCard Microformat

Geo Microformat